User: anonymous   Login
Location: Azul
(36.7830°S, 59.8500°W)
Time: 18:54:49
(UTC-03:00)
Language:

ISS - Orbit

View from above orbital plane
View from above orbital plane
View from above satellite
View from above satellite

Ground track
Ground track

The orbit data is extracted from the following two-line orbital elements,

1 25544U 98067A   20091.54820301  .00016717  00000-0  10270-3 0  9013
2 25544  51.6434  12.6423 0005008  70.1565 290.0125 15.48967147 19977
Epoch (UTC): 31 March 2020 13:09:24
Eccentricity: 0.0005008
inclination: 51.6434°
perigee height: 416 km
apogee height: 423 km
right ascension of ascending node: 12.6423°
argument of perigee: 70.1565°
revolutions per day: 15.48967147
mean anomaly at epoch: 290.0125°
orbit number at epoch: 1997

The dashed part of the orbit path shows where the satellite is in the earth's shadow,  

DLR